User: anonymous   Login
Location: Vancouver
(49.2500°N, 123.1330°W)
Time: 20:18:54
(UTC-07:00)
Language:

BREEZE-M DEB (TANK) - Orbit

View from above orbital plane
View from above orbital plane
View from above satellite
View from above satellite

Ground track
Ground track

The orbit data is extracted from the following two-line orbital elements,

1 27821U 03024B   17118.01227075 +.00002774 +00000-0 +28214-3 0  9991
2 27821 049.6056 319.7656 4941214 351.3232 002.5863 05.75566064277568
Epoch (UTC): 28 April 2017 00:17:40
Eccentricity: 0.4941214
inclination: 49.6056°
perigee height: 275 km
apogee height: 13273 km
right ascension of ascending node: 319.7656°
argument of perigee: 351.3232°
revolutions per day: 5.75566064
mean anomaly at epoch: 2.5863°
orbit number at epoch: 27756

The dashed part of the orbit path shows where the satellite is in the earth's shadow,  

DLR